Regional Weather Roundup
Issued by NWS

Home | Current Version | Previous Version | Text Only | Print | Product List | Glossary Off
Versions: 1 2 3 4 5 6 7 8 9 10 11 12 13 14 15 16 17 18 19 20 21 22 23 24 25 26 27 28 29 30 31 32 33 34 35 36 37 38 39 40 41 42 43 44 45 46 47 48 49 50

000
ASUS43 KMKX 252100
RWRWI

WISCONSIN REGIONAL WEATHER ROUNDUP
NATIONAL WEATHER SERVICE MILWAUKEE/SULLIVAN WI
400 PM CDT THU AUG 25 2016

NOTE: "FAIR" INDICATES FEW OR NO CLOUDS BELOW 12,000 FEET WITH NO
SIGNIFICANT WEATHER AND/OR OBSTRUCTIONS TO VISIBILITY.

WIZ001-002-006>008-014>016-023>028-252200-
NORTHWEST WISCONSIN

CITY           SKY/WX    TMP DP  RH WIND       PRES   REMARKS
SUPERIOR ARPT  CLOUDY    68  54  61 W17G23    29.98S
ASHLAND        MOSUNNY   72  53  51 W14G28    29.96R
HAYWARD        PTSUNNY   70  53  54 W13G21    30.01R
SIREN          PTSUNNY   69  52  54 W15G21    30.03S
CUMBERLAND     MOSUNNY   70  52  52 W14G21    30.03R
RICE LAKE      MOSUNNY   72  54  53 SW13      30.04R
CHETEK         NOT AVBL
LADYSMITH      CLOUDY    74  56  53 W12G18    30.03S
EAU CLAIRE     NOT AVBL
MENOMONIE      MOSUNNY   76  54  45 SW13      30.03S
NEW RICHMOND   MOSUNNY   71  55  55 W16G22    30.05R
OSCEOLA        MOSUNNY   72  55  55 W12       30.07R
$$

WIZ003>005-009-010-017-018-252200-
NORTH CENTRAL WISCONSIN

CITY           SKY/WX    TMP DP  RH WIND       PRES   REMARKS
MANITOWISH WTR NOT AVBL
ARBOR VITAE    MOSUNNY   77  55  46 W18G26    29.98S
WOODRUFF       MOSUNNY   77  55  46 W18G26    29.98S
RHINELANDER    MOSUNNY   76  58  53 W14G23    29.98F
EAGLE RIVER    PTSUNNY   75  55  49 W15G21    29.96S
LAND O LAKES   MOSUNNY   76  52  43 W13G21    29.96S
PHILLIPS       CLOUDY    72  54  53 W9G18     29.99S
TOMAHAWK       MOSUNNY   74  57  54 SW6       29.99F
MEDFORD        MOSUNNY   73  59  60 W9G17     30.01S
MERRILL        MOSUNNY   76  58  53 W20G28    30.00S
$$

WIZ029-030-035-036-043>047-252200-
CENTRAL WISCONSIN

CITY           SKY/WX    TMP DP  RH WIND       PRES   REMARKS
WAUSAU         PTSUNNY   76  56  49 W13G24    29.99F
MOSINEE        MOSUNNY   75  59  57 SW15G21   30.02F
MARSHFIELD     MOSUNNY   77  60  55 W10       30.01F
STEVENS POINT  PTSUNNY   76  57  52 W12       30.02F
WAUPACA        MOSUNNY   82  60  48 W10       30.01F HX  82
WAUTOMA        CLOUDY    79  61  53 W10       30.02F HX  80
WISC RAPIDS    CLOUDY    78  59  51 W13G22    30.03F
CAMP DOUGLAS   NOT AVBL
$$

WIZ011>013-019>022-031-037>040-048>050-252200-
NORTHEAST WISCONSIN

CITY           SKY/WX    TMP DP  RH WIND       PRES   REMARKS
ANTIGO         MOSUNNY   74  58  55 W17G23    30.01S
SHAWANO        SUNNY     81  56  43 W13G20    29.99S HX  81
OCONTO         NOT AVBL
STURGEON BAY   SUNNY     77  60  55 SW16      29.97F
GREEN BAY      SUNNY     79  62  56 W10G21    29.99S HX  80
MANITOWOC      NOT AVBL
APPLETON       MOSUNNY   79  54  41 W12G17    30.00F
CLINTONVILLE   SUNNY     79  55  44 W9        29.99F
OSHKOSH        MOSUNNY   78  59  51 MISG      30.01F
$$

WIZ032>034-041-042-053>061-252200-
SOUTHWEST WISCONSIN

CITY           SKY/WX    TMP DP  RH WIND       PRES   REMARKS
LA CROSSE      CLOUDY    80  61  52 W9        30.03F HX  81
SPARTA         MOSUNNY   76  62  60 W6        30.05S
VIROQUA        CLOUDY    76  61  59 W5        30.07S
BOSCOBEL       CLOUDY    79  61  53 SW8       30.06S HX  80
PRAIRIE DU CHI CLOUDY    77  57  50 SW6       30.06S
PLATTEVILLE    CLOUDY    75  65  73 W9        30.08R
$$

WIZ056-057-062-063-064-067-068-252200-
SOUTH CENTRAL WISCONSIN

CITY           SKY/WX    TMP DP  RH WIND       PRES   REMARKS
REEDSBURG      NOT AVBL
BARABOO/DELLS  CLOUDY    77  61  56 W9        30.05F
LONE ROCK      NOT AVBL
MINERAL POINT  PTSUNNY   77  61  57 W6        30.08S
MADISON        PTSUNNY   78  60  53 NW8       30.04F
MIDDLETON      PTSUNNY   79  61  54 NW6       30.05F HX  80
WATERTOWN      CLOUDY    78  61  54 W7        30.04S HX  80
MONROE         MOSUNNY   77  59  53 W5        30.06S
JANESVILLE     PTSUNNY   81  61  50 NW8       30.05S HX  81
$$

WIZ051-052-058>065-066-070>072-252200-
SOUTHEAST WISCONSIN

CITY           SKY/WX    TMP DP  RH WIND       PRES   REMARKS
MILWAUKEE      PTSUNNY   80  62  54 E6        30.01F HX  81
WAUKESHA       SUNNY     75  59  57 W10       30.04F
MILWAUKEE/TIMM SUNNY     81  54  39 NW7       30.03S HX  80
RACINE         CLOUDY    80  62  54 CALM      30.03F HX  81
BURLINGTON     CLOUDY    78  60  53 NW7       30.04S
KENOSHA        CLOUDY    80  63  55 W10       30.03S HX  81
FOND DU LAC    MOSUNNY   79  58  48 W12G21    30.02F HX  80
SHEBOYGAN      SUNNY     80  58  46 W10       30.00F HX  80
WEST BEND      SUNNY     79  54  41 W6        30.03S
JUNEAU         MOSUNNY   77  58  52 W9        30.05S
$$

LSZ147-162-252200-
LAKE SUPERIOR

STATION/POSITION TIME  TEMP    WIND        PRES    WAVE
                       AIR SEA DIR/SP/G            HT/PER
                 (UTC) (F)     (DEG/KT/KT) (MB)    (FT/S)
W MID LAKE BUOY  1950   69 68  240/ 23/ 27 1011.3S   5/ 6
DEVILS ISLAND    2000   68     250/ 21/ 24 1013.2R
PORT WING        2000   69     240/ 16/ 22 1014.6R
SAXON HARBOR     2000   76     240/  7/ 16 1013.5
$$

LMZ867-665-643>646-252200-
LAKE MICHIGAN

STATION/POSITION TIME  TEMP    WIND        PRES    WAVE
                       AIR SEA DIR/SP/G            HT/PER
                 (UTC) (F)     (DEG/KT/KT) (MB)    (FT/S)
CHAMBERS ISLAND  2000   77     180/  6/ 11 1013.9F
S GREEN BAY BUOY 2000   75 73  240/ 12/ 12 1014.6F
N MID LAKE BUOY  1950   71 70  220/ 10/ 12 1013.7S   1/ 5
NORTHPORT PIER   2000   79     220/  3/  7 1013.9F
SISTER BAY       2007   80     240/ 12/ 14   N/A
KEWAUNEE LAKESHO 2000   77     260/  9/ 12 1015.0F
SHEBOYGAN LAKESH 2000   77     270/ 10/ 13 1015.4F
PORT WASHINGTON  2040   71     170/  7/ 10 1016.9S
ATWATER BUOY     2000   67 47  200/  2/  4   N/A
MILWAUKEE LAKESH 2010   74     170/  1/  1   N/A
S MID LAKE BUOY  1950   73 75  350/  8/ 10 1016.0F   1/ 3
KENOSHA   LAKESH 2000   74     150/  5/  6 1016.3F
$$

TC  - TEMPERATURE IN CELSIUS
VSB - VISIBILITY IN STATUTE MILES
WCI - WIND CHILL INDEX
HX  - HEAT INDEX





USA.gov is the U.S. government's official web portal to all federal, state and local government web resources and services.